TimeCDT,TemperatureF,Dew PointF,Humidity,Sea Level PressureIn,VisibilityMPH,Wind Direction,Wind SpeedMPH,Gust SpeedMPH,PrecipitationIn,Events,Conditions,WindDirDegrees,DateUTC
12:15 AM,72.9,66.2,80,30.14,10.0,SSE,8.1,-,N/A,,Clear,160,2013-08-25 05:15:00
12:35 AM,72.7,66.2,80,30.14,10.0,SSE,6.9,-,N/A,,Clear,160,2013-08-25 05:35:00
12:55 AM,72.7,65.8,79,30.14,10.0,SSE,6.9,-,N/A,,Clear,160,2013-08-25 05:55:00
1:15 AM,72.3,65.8,80,30.15,10.0,SSE,5.8,-,N/A,,Clear,160,2013-08-25 06:15:00
1:35 AM,71.6,65.7,81,30.15,10.0,South,4.6,-,N/A,,Clear,170,2013-08-25 06:35:00
1:55 AM,70.5,65.5,84,30.15,10.0,South,4.6,-,N/A,,Clear,170,2013-08-25 06:55:00
2:15 AM,69.6,65.3,86,30.15,10.0,SSE,5.8,-,N/A,,Clear,160,2013-08-25 07:15:00
2:35 AM,68.9,64.9,87,30.16,10.0,SSE,4.6,-,N/A,,Clear,160,2013-08-25 07:35:00
2:55 AM,68.4,64.8,88,30.17,10.0,SSE,4.6,-,N/A,,Clear,160,2013-08-25 07:55:00
3:15 AM,67.5,64.0,89,30.17,10.0,South,5.8,-,N/A,,Clear,170,2013-08-25 08:15:00
3:35 AM,67.3,64.2,90,30.17,10.0,South,5.8,-,N/A,,Clear,170,2013-08-25 08:35:00
3:55 AM,67.3,64.0,89,30.18,10.0,South,5.8,-,N/A,,Clear,170,2013-08-25 08:55:00
4:15 AM,67.1,63.9,89,30.18,7.0,SSE,5.8,-,N/A,,Clear,160,2013-08-25 09:15:00
4:35 AM,66.6,63.7,90,30.18,7.0,South,5.8,-,N/A,,Clear,170,2013-08-25 09:35:00
4:55 AM,65.8,63.0,90,30.19,7.0,South,5.8,-,N/A,,Clear,170,2013-08-25 09:55:00
5:15 AM,65.7,63.1,92,30.19,7.0,South,5.8,-,N/A,,Clear,170,2013-08-25 10:15:00
5:35 AM,65.7,63.1,92,30.19,7.0,South,5.8,-,N/A,,Clear,170,2013-08-25 10:35:00
5:55 AM,65.3,62.8,92,30.19,7.0,South,5.8,-,N/A,,Clear,180,2013-08-25 10:55:00
6:15 AM,65.1,62.4,91,30.20,7.0,South,5.8,-,N/A,,Clear,180,2013-08-25 11:15:00
6:35 AM,65.3,62.6,91,30.21,7.0,South,5.8,-,N/A,,Clear,180,2013-08-25 11:35:00
6:55 AM,65.7,62.8,90,30.21,7.0,South,5.8,-,N/A,,Clear,170,2013-08-25 11:55:00
7:15 AM,66.4,63.1,89,30.22,7.0,South,4.6,-,N/A,,Clear,180,2013-08-25 12:15:00
7:35 AM,67.5,63.7,88,30.22,7.0,South,4.6,-,N/A,,Clear,170,2013-08-25 12:35:00
7:55 AM,68.5,64.4,87,30.22,7.0,South,4.6,-,N/A,,Clear,170,2013-08-25 12:55:00
8:15 AM,70.0,65.3,85,30.22,10.0,South,4.6,-,N/A,,Clear,180,2013-08-25 13:15:00
8:35 AM,72.0,65.8,81,30.22,10.0,South,5.8,-,N/A,,Clear,180,2013-08-25 13:35:00
8:55 AM,73.9,66.2,77,30.22,10.0,SSW,6.9,-,N/A,,Clear,200,2013-08-25 13:55:00
9:15 AM,76.3,66.7,72,30.22,10.0,SSW,8.1,-,N/A,,Clear,210,2013-08-25 14:15:00
9:35 AM,78.1,67.5,70,30.21,10.0,SSW,9.2,-,N/A,,Clear,210,2013-08-25 14:35:00
9:55 AM,79.0,67.5,68,30.21,10.0,SSW,10.4,-,N/A,,Clear,210,2013-08-25 14:55:00
10:15 AM,80.4,68.0,66,30.21,10.0,SSW,10.4,-,N/A,,Clear,210,2013-08-25 15:15:00
10:35 AM,81.3,68.4,65,30.21,10.0,SSW,12.7,-,N/A,,Clear,210,2013-08-25 15:35:00
10:55 AM,82.2,68.9,64,30.21,10.0,SW,9.2,-,N/A,,Clear,220,2013-08-25 15:55:00
11:15 AM,83.3,68.7,61,30.20,10.0,SSW,10.4,16.1,N/A,,Clear,210,2013-08-25 16:15:00
11:35 AM,84.4,68.5,59,30.20,10.0,SSW,10.4,16.1,N/A,,Clear,210,2013-08-25 16:35:00
11:55 AM,85.5,69.1,58,30.19,10.0,SSW,8.1,-,N/A,,Clear,210,2013-08-25 16:55:00
12:15 PM,86.0,68.9,56,30.18,10.0,SSW,9.2,-,N/A,,Clear,200,2013-08-25 17:15:00
12:35 PM,86.5,67.8,53,30.18,10.0,SSW,10.4,-,N/A,,Clear,210,2013-08-25 17:35:00
12:55 PM,87.6,68.0,52,30.17,10.0,SSW,9.2,-,N/A,,Clear,210,2013-08-25 17:55:00
1:15 PM,88.0,68.2,52,30.17,10.0,South,9.2,-,N/A,,Clear,190,2013-08-25 18:15:00
1:35 PM,88.5,67.6,50,30.15,10.0,SSW,11.5,17.3,N/A,,Clear,210,2013-08-25 18:35:00
1:55 PM,88.9,67.8,50,30.15,10.0,SSW,9.2,-,N/A,,Clear,210,2013-08-25 18:55:00
2:15 PM,89.6,67.8,48,30.15,10.0,SSW,5.8,-,N/A,,Clear,210,2013-08-25 19:15:00
2:35 PM,89.8,68.0,49,30.14,10.0,SW,8.1,-,N/A,,Clear,220,2013-08-25 19:35:00
2:55 PM,89.6,66.4,46,30.14,10.0,SSW,9.2,-,N/A,,Clear,210,2013-08-25 19:55:00
3:15 PM,90.0,67.5,47,30.13,10.0,South,6.9,-,N/A,,Clear,190,2013-08-25 20:15:00
3:35 PM,90.5,67.8,47,30.13,10.0,South,9.2,-,N/A,,Clear,180,2013-08-25 20:35:00
3:55 PM,90.0,67.3,47,30.12,10.0,South,8.1,-,N/A,,Clear,190,2013-08-25 20:55:00
4:15 PM,90.0,67.6,48,30.12,10.0,SSW,9.2,-,N/A,,Clear,200,2013-08-25 21:15:00
4:35 PM,90.0,67.6,48,30.12,10.0,South,8.1,-,N/A,,Clear,180,2013-08-25 21:35:00
4:55 PM,89.8,66.2,46,30.12,10.0,South,9.2,-,N/A,,Clear,180,2013-08-25 21:55:00
5:15 PM,89.2,67.5,48,30.12,10.0,South,6.9,-,N/A,,Clear,180,2013-08-25 22:15:00
5:35 PM,88.7,67.1,49,30.12,10.0,South,8.1,-,N/A,,Clear,180,2013-08-25 22:35:00
5:55 PM,87.8,66.2,49,30.12,10.0,South,6.9,-,N/A,,Clear,170,2013-08-25 22:55:00
6:15 PM,86.2,65.7,50,30.12,10.0,South,5.8,-,N/A,,Clear,170,2013-08-25 23:15:00
6:35 PM,85.1,62.6,47,30.12,10.0,South,6.9,-,N/A,,Clear,170,2013-08-25 23:35:00
6:55 PM,83.7,62.8,49,30.11,10.0,SSE,5.8,-,N/A,,Clear,160,2013-08-25 23:55:00
7:15 PM,82.2,63.0,52,30.11,10.0,SSE,5.8,-,N/A,,Clear,160,2013-08-26 00:15:00
7:35 PM,79.9,62.6,55,30.11,10.0,SSE,5.8,-,N/A,,Clear,150,2013-08-26 00:35:00
7:55 PM,78.8,61.9,56,30.12,10.0,SSE,6.9,-,N/A,,Clear,160,2013-08-26 00:55:00
8:15 PM,76.8,62.2,61,30.12,10.0,SSE,5.8,-,N/A,,Clear,160,2013-08-26 01:15:00
8:35 PM,75.4,62.6,64,30.12,10.0,South,6.9,-,N/A,,Clear,170,2013-08-26 01:35:00
8:55 PM,74.3,62.2,66,30.13,10.0,South,5.8,-,N/A,,Clear,170,2013-08-26 01:55:00
9:15 PM,73.6,61.7,66,30.13,10.0,South,6.9,-,N/A,,Clear,170,2013-08-26 02:15:00
9:35 PM,73.4,61.2,65,30.14,10.0,South,6.9,-,N/A,,Clear,170,2013-08-26 02:35:00
9:55 PM,72.7,60.8,66,30.14,10.0,South,6.9,-,N/A,,Clear,180,2013-08-26 02:55:00
10:15 PM,72.5,60.1,65,30.14,10.0,South,5.8,-,N/A,,Clear,180,2013-08-26 03:15:00
10:35 PM,71.8,59.9,66,30.14,10.0,South,5.8,-,N/A,,Clear,180,2013-08-26 03:35:00
10:55 PM,71.2,59.5,66,30.14,10.0,South,6.9,-,N/A,,Clear,180,2013-08-26 03:55:00
11:15 PM,71.1,59.2,66,30.14,10.0,South,5.8,-,N/A,,Clear,190,2013-08-26 04:15:00
11:35 PM,71.1,59.4,66,30.14,10.0,South,6.9,-,N/A,,Clear,190,2013-08-26 04:35:00
11:55 PM,69.6,59.9,71,30.14,10.0,South,6.9,-,N/A,,Clear,190,2013-08-26 04:55:00